Weather observations for the past three days for
Bluefield, Mercer County Airport
Imperial (Metric)
Date Time (edt) Wind (mph) Vis. (mi.) Weather Sky Cond. Temperature (ºF) Relative Humidity Wind Chill (°F) Heat Index (°F) Pressure Precipitation (in)
Air Dwpt 6 hour altimeter (in) sea level (mb) 1 hr 3 hr 6 hr
Max. Min.
22 19:52 W 6 10.00 Fair CLR 71.1 64 79 71.1 79% 30.1 1015.7
22 18:52 W 9 10.00 A Few Clouds FEW045 FEW080 72 64 76% 30.09 1015.6
22 17:52 W 8 G 21 10.00 Mostly Cloudy SCT038 BKN060 72 64 76% 30.08 1015.1
22 16:52 W 9 10.00 A Few Clouds FEW034 FEW060 73.9 66 76% 30.08 1015.0
22 15:52 W 9 10.00 Mostly Cloudy SCT037 SCT047 BKN090 77 63 62% 79 30.08 1014.8
22 14:52 Vrbl 7 G 18 10.00 Mostly Cloudy BKN037 BKN044 75.9 63 64% 78 30.09 1015.3
22 13:52 SW 15 G 21 10.00 Partly Cloudy FEW032 SCT043 SCT090 77 62.1 77 66 60% 79 30.11 1015.7
22 12:52 W 7 10.00 Mostly Cloudy FEW025 SCT035 BKN042 73.9 63 69% 30.12 1016.3
22 11:52 W 8 10.00 Mostly Cloudy FEW017 SCT021 BKN027 73 64 74% 30.13 1016.7
22 10:52 SW 6 10.00 Mostly Cloudy BKN009 BKN013 BKN022 70 64.9 84% 30.14 1017.3
22 09:52 W 5 10.00 Overcast OVC010 66.9 64.9 93% 30.14 1017.5
22 08:52 NW 3 10.00 Overcast BKN017 BKN025 OVC033 66 64.9 96% 30.14 1017.5
22 07:52 W 3 10.00 Mostly Cloudy SCT024 BKN038 66.9 64 66.9 64.9 91% 30.12 1016.7 0.01
22 06:52 NW 5 6.00 Light Rain Fog/Mist FEW034 BKN044 OVC049 66 64 93% 30.11 1016.2 0.01
22 05:52 Calm 10.00 Mostly Cloudy SCT033 BKN042 66 64 93% 30.11 1016.1
22 04:52 Calm 10.00 Mostly Cloudy BKN100 66.9 64 91% 30.1 1015.6
22 03:52 S 6 10.00 Overcast OVC055 66.9 64 91% 30.1 1015.6
22 02:52 Calm 10.00 Fair CLR 66.9 64 91% 30.12 1016.0
22 01:52 SE 3 10.00 Fair CLR 66.9 64 70 66 91% 30.14 1016.8
22 00:52 Calm 10.00 Fair CLR 68 64 87% 30.15 1017.2
21 23:52 Vrbl 6 10.00 Fair CLR 69.1 63 81% 30.15 1017.7
21 22:52 Calm 10.00 A Few Clouds FEW016 68 64 87% 30.16 1018.4
21 21:52 Calm 10.00 Fair CLR 68 64.9 90% 30.16 1018.5
21 20:52 Calm 10.00 Fair CLR 68 64 87% 30.15 1018.1
21 19:52 Calm 10.00 Fair CLR 70 64 79 70 82% 30.13 1017.6
21 18:52 Calm 10.00 Partly Cloudy SCT095 72 63 73% 30.13 1017.5
21 17:52 Vrbl 3 10.00 Mostly Cloudy FEW028 SCT055 BKN080 71.1 64 79% 30.13 1017.6
21 16:52 Calm 10.00 Overcast SCT035 BKN060 OVC100 75 63 66% 77 30.14 1017.7
21 15:52 NE 5 10.00 Mostly Cloudy BKN035 BKN120 78.1 64 62% 80 30.15 1017.6
21 14:52 Vrbl 5 10.00 Partly Cloudy SCT110 78.1 63 60% 80 30.16 1017.8
21 13:52 Calm 10.00 A Few Clouds FEW024 75.9 64 75.9 60.1 67% 78 30.18 1018.7
21 12:52 Calm 10.00 A Few Clouds FEW100 73 64.9 76% 30.2 1019.6
21 11:52 Calm 10.00 Mostly Cloudy SCT008 BKN100 69.1 64 84% 30.21 1020.0
21 10:52 Vrbl 3 10.00 Overcast OVC003 64 63 96% 30.2 1020.0
21 09:52 NE 3 10.00 Overcast OVC002 63 63 100% 30.2 1020.0
21 08:52 SE 3 0.50 Fog VV002 61 61 100% 30.2 1020.1
21 07:52 Calm 0.15 Fog VV002 60.1 60.1 60.1 57.9 100% 30.19 1019.8
21 06:52 Calm 0.15 Fog VV002 59 59 100% 30.18 1019.3
21 05:52 Calm 0.25 Fog VV001 57.9 57.9 100% 30.16 1019.1
21 04:52 Calm 0.25 Fog VV002 59 59 100% 30.17 1019.4
21 03:52 Calm 0.25 Fog VV001 57.9 57.9 100% 30.17 1019.3
21 02:52 Calm 1.00 Fog/Mist VV001 59 59 100% 30.17 1018.6
21 01:52 Calm 1.00 Fog/Mist VV001 60.1 60.1 66 59 100% 30.17 1018.6
21 00:52 Calm 1.00 Fog/Mist VV001 60.1 60.1 100% 30.18 1019.2
20 23:52 Calm 4.00 Fog/Mist CLR 61 61 100% 30.17 1018.9
20 22:52 Calm 2.50 Fog/Mist CLR 62.1 62.1 100% 30.19 1019.7
20 21:52 Calm 6.00 Fog/Mist CLR 63 63 100% 30.2 1019.9
20 19:52 Calm 10.00 A Few Clouds FEW005 66 64.9 72 64.9 96% 30.19 1019.3 0.18
20 18:52 Calm 10.00 Mostly Cloudy FEW004 SCT090 BKN120 66 64.9 96% 30.19 1019.3 0.01
20 17:52 Calm 10.00 Overcast SCT004 OVC110 66 64 93% 30.18 1019.2 0.04
20 16:52 Calm 4.00 Light Rain Fog/Mist FEW005 FEW050 OVC090 64.9 64.9 100% 30.2 1019.9 0.12 0.13
20 15:52 N 6 7.00 Light Rain FEW028 BKN060 OVC070 66.9 64.9 93% 30.19 1019.3 0.01
20 14:52 SE 3 10.00 Overcast BKN016 BKN022 OVC085 72 64.9 79% 30.18 1018.5
20 13:52 Calm 10.00 Mostly Cloudy FEW015 BKN095 71.1 64 71.1 64.9 79% 30.2 1019.1 0.07
20 12:52 Calm 10.00 Overcast FEW016 BKN055 OVC065 70 64 82% 30.21 1019.7
20 11:52 W 3 10.00 Mostly Cloudy BKN010 BKN060 BKN070 69.1 64.9 87% 30.21 1019.7
20 10:52 Calm 10.00 Mostly Cloudy FEW009 BKN120 68 64 87% 30.21 1019.6 0.01 0.07
20 09:52 Calm 10.00 Light Rain OVC095 66.9 64 91% 30.21 1019.5 0.01
20 08:52 Calm 5.00 Light Rain Fog/Mist BKN070 OVC085 64.9 64 97% 30.21 1019.8 0.05
20 07:52 Calm 7.00 Light Rain SCT034 SCT043 OVC050 64.9 64 68 64 97% 30.21 1019.5 0.02 0.03
20 06:52 Calm 10.00 Light Rain SCT065 OVC080 64.9 63 93% 30.19 1018.7 0.01
20 05:52 Calm 10.00 Overcast FEW065 OVC110 64.9 63 93% 30.18 1018.2
20 04:52 E 3 10.00 Light Rain BKN075 OVC100 66 62.1 87% 30.17 1017.9
20 03:52 Calm 10.00 Overcast BKN070 OVC085 66.9 62.1 84% 30.18 1018.0
20 02:52 Vrbl 6 10.00 Light Rain BKN080 BKN110 66.9 63 87% 30.18 1018.2
20 01:52 Vrbl 3 10.00 Mostly Cloudy BKN017 68 62.1 73 68 81% 30.18 1018.4
20 00:52 Calm 10.00 Fair CLR 69.1 60.1 73% 30.19 1018.5
19 23:52 Calm 10.00 Fair CLR 69.1 61 76% 30.19 1018.8
19 22:52 NE 3 10.00 Fair CLR 70 61 73% 30.2 1019.2
19 21:52 SE 5 10.00 Fair CLR 70 61 73% 30.19 1019.1
19 20:52 Vrbl 3 10.00 Partly Cloudy SCT050 71.1 61 71% 30.18 1019.0
Date Time (edt) Wind (mph) Vis. (mi.) Weather Sky Cond. Air Dwpt Max. Min. Relative Humidity Wind Chill (°F) Heat Index (°F) altimeter (in) sea level (mb) 1 hr 3 hr 6 hr
6 hour
Temperature (ºF) Pressure Precipitation (in)